Weather History for Sydney Airport, New South Wales

Change the Weather History Date:

Wednesday, November 6, 2013

  Actual Average Record
Temperature  
Mean Temperature 64 °F -  
Max Temperature 74 °F 76 °F - ()
Min Temperature 53 °F 60 °F - ()
Degree Days  
Heating Degree Days 2    
Growing Degree Days 14 (Base 50)    
Moisture  
Dew Point 49 °F    
Average Humidity 54    
Maximum Humidity 77    
Minimum Humidity 23    
Precipitation  
Precipitation 0.00 in 0.13 in - ()
Sea Level Pressure  
Sea Level Pressure 30.16 in    
Wind  
Wind Speed 9 mph ()    
Max Wind Speed 24 mph    
Max Gust Speed -    
Visibility 9.1 miles    
Events      
T = Trace of Precipitation, MM = Missing Value Source: Averaged Metar Reports

Daily Weather History Graph

Daily Weather History Graph

Search for Another Location

Airport:

Trip Planner

Search our weather history database for the weather conditions in past years. The results will help you decide how hot, cold, wet, or windy it might be!

Date:

Astronomy

Nov. 06, 2013 Rise Set
Actual Time 5:50 AM AEDT 7:27 PM AEDT
Civil Twilight 5:23 AM AEDT 7:54 PM AEDT
Nautical Twilight 4:51 AM AEDT 8:27 PM AEDT
Astronomical Twilight 4:17 AM AEDT 9:01 PM AEDT
Moon 7:55 AM AEDT (11/6) 10:18 PM AEDT (11/6)
Length of Visible Light 14h 31m
Length of Day
13h 37m
Waxing Crescent, 8% of the Moon is Illuminated
Nov 6
Waxing Crescent
Nov 10
First Quarter
Nov 18
Full
Nov 26
Last Quarter
Dec 3
New

Hourly Weather History & Observations

Time (AEDT) Temp. Dew Point Humidity Pressure Visibility Wind Dir Wind Speed Gust Speed Precip Events Conditions
12:00 AM 59 °F 48 °F 58% 30.30 in 19 mi ENE 4.6 mph - -   Partly Cloudy
12:00 AM 59.0 °F 48.2 °F 67% 30.27 in 6.2 mi ENE 4.6 mph - N/A   Partly Cloudy
12:30 AM 59.0 °F 48.2 °F 67% 30.27 in 6.2 mi East 4.6 mph - N/A   Partly Cloudy
1:00 AM 59 °F 48 °F 59% 30.27 in - North 3.5 mph - -  
1:00 AM 59.0 °F 48.2 °F 67% 30.27 in 6.2 mi North 3.5 mph - N/A   Partly Cloudy
1:30 AM 59.0 °F 48.2 °F 67% 30.24 in 6.2 mi WNW 5.8 mph - N/A   Partly Cloudy
2:00 AM 56 °F 47 °F 65% 30.26 in - WNW 5.8 mph - -  
2:00 AM 57.2 °F 48.2 °F 72% 30.24 in 6.2 mi WNW 5.8 mph - N/A   Partly Cloudy
2:30 AM 57.2 °F 48.2 °F 72% 30.24 in 6.2 mi NNW 5.8 mph - N/A   Partly Cloudy
3:00 AM 55.4 °F 48.2 °F 77% 30.24 in 6.2 mi NW 4.6 mph - N/A   Partly Cloudy
3:30 AM 55.4 °F 48.2 °F 77% 30.24 in 6.2 mi NNE 4.6 mph - N/A   Partly Cloudy
4:00 AM 55 °F 48 °F 69% 30.24 in - North 6.9 mph - -  
4:00 AM 55.4 °F 48.2 °F 77% 30.24 in 6.2 mi North 6.9 mph - N/A   Partly Cloudy
4:30 AM 55.4 °F 46.4 °F 72% 30.21 in 6.2 mi NW 8.1 mph - N/A   Partly Cloudy
5:00 AM 54 °F 47 °F 68% 30.23 in - NW 8.1 mph - -  
5:00 AM 53.6 °F 46.4 °F 77% 30.21 in 6.2 mi NW 8.1 mph - N/A   Partly Cloudy
5:30 AM 53.6 °F 46.4 °F 77% 30.21 in 6.2 mi NNW 6.9 mph - N/A   Partly Cloudy
6:00 AM 54 °F 46 °F 67% 30.24 in 19 mi North 8.1 mph - -   Partly Cloudy
6:00 AM 53.6 °F 46.4 °F 77% 30.21 in 6.2 mi North 8.1 mph - N/A   Partly Cloudy
6:30 AM 55.4 °F 46.4 °F 72% 30.24 in 6.2 mi NNW 6.9 mph - N/A   Partly Cloudy
7:00 AM 57 °F 46 °F 58% 30.25 in - NNW 5.8 mph - -  
7:00 AM 57.2 °F 46.4 °F 67% 30.24 in 6.2 mi NNW 5.8 mph - N/A   Partly Cloudy
7:30 AM 60.8 °F 46.4 °F 59% 30.24 in 6.2 mi NW 6.9 mph - N/A   Partly Cloudy
8:00 AM 61 °F 47 °F 50% 30.26 in - WNW 6.9 mph - -  
8:00 AM 60.8 °F 48.2 °F 63% 30.24 in 6.2 mi WNW 6.9 mph - N/A   Partly Cloudy
8:30 AM 64.4 °F 46.4 °F 52% 30.24 in 6.2 mi NW 6.9 mph - N/A   Partly Cloudy
9:00 AM 66 °F 46 °F 37% 30.25 in 19 mi West 6.9 mph - -   Haze
9:00 AM 66.2 °F 46.4 °F 49% 30.24 in 6.2 mi West 6.9 mph - N/A   Partly Cloudy
9:30 AM 68.0 °F 44.6 °F 43% 30.21 in 6.2 mi North 8.1 mph - N/A   Partly Cloudy
10:00 AM 68 °F 44 °F 31% 30.23 in - North 8.1 mph - -  
10:00 AM 68.0 °F 44.6 °F 43% 30.21 in 6.2 mi North 8.1 mph - N/A   Partly Cloudy
10:30 AM 68.0 °F 44.6 °F 43% 30.21 in 6.2 mi North 6.9 mph - N/A   Partly Cloudy
11:00 AM 69 °F 46 °F 32% 30.20 in - NE 3.5 mph - -  
11:00 AM 68.0 °F 46.4 °F 46% 30.18 in 6.2 mi NE 3.5 mph - N/A   Partly Cloudy
11:30 AM 71.6 °F 44.6 °F 38% 30.18 in - ENE 10.4 mph - N/A   Clear
12:00 PM 74 °F 44 °F 23% 30.17 in 19 mi East 17.3 mph - -   Partly Cloudy
12:00 PM 73.4 °F 44.6 °F 36% 30.15 in - East 17.3 mph - N/A   Clear
12:30 PM 69.8 °F 46.4 °F 43% 30.15 in - ENE 16.1 mph - N/A   Clear
1:00 PM 70 °F 47 °F 32% 30.14 in - ENE 17.3 mph - -  
1:00 PM 69.8 °F 46.4 °F 43% 30.12 in - ENE 17.3 mph - N/A   Clear
1:30 PM 69.8 °F 48.2 °F 46% 30.12 in - ENE 17.3 mph - N/A   Clear
2:00 PM 70 °F 48 °F 34% 30.13 in - ENE 19.6 mph - -  
2:00 PM 69.8 °F 48.2 °F 46% 30.12 in - ENE 19.6 mph - N/A   Clear
2:30 PM 71.6 °F 48.2 °F 43% 30.09 in - NE 20.7 mph - N/A   Clear
3:00 PM 71 °F 48 °F 32% 30.10 in 19 mi ENE 23.0 mph - -   Partly Cloudy
3:00 PM 69.8 °F 48.2 °F 46% 30.09 in - ENE 23.0 mph - N/A   Clear
3:30 PM 69.8 °F 48.2 °F 46% 30.06 in - NE 19.6 mph - N/A   Clear
4:00 PM 71 °F 47 °F 31% 30.09 in - ENE 24.2 mph - -  
4:00 PM 71.6 °F 46.4 °F 41% 30.06 in - ENE 24.2 mph - N/A   Clear
4:30 PM 71.6 °F 48.2 °F 43% 30.06 in - ENE 21.9 mph - N/A   Clear
5:00 PM 70 °F 48 °F 35% 30.08 in - ENE 19.6 mph - -  
5:00 PM 69.8 °F 48.2 °F 46% 30.06 in - ENE 19.6 mph - N/A   Clear
5:30 PM 71.6 °F 48.2 °F 43% 30.06 in - NE 21.9 mph - N/A   Clear
6:00 PM 71 °F 49 °F 34% 30.06 in 19 mi NE 19.6 mph - -   Partly Cloudy
6:00 PM 69.8 °F 48.2 °F 46% 30.04 in - NE 19.6 mph - N/A   Clear
6:30 PM 68.0 °F 50.0 °F 52% 30.06 in - NE 21.9 mph - N/A   Clear
7:00 PM 68 °F 52 °F 47% 30.07 in - NE 20.7 mph - -  
7:00 PM 68.0 °F 51.8 °F 56% 30.06 in - NE 20.7 mph - N/A   Clear
7:30 PM 69.8 °F 53.6 °F 56% 30.06 in - NNE 16.1 mph - N/A   Clear
8:00 PM 68 °F 54 °F 51% 30.09 in - NNE 16.1 mph - -  
8:00 PM 68.0 °F 53.6 °F 60% 30.06 in - NNE 16.1 mph - N/A   Clear
8:30 PM 68.0 °F 55.4 °F 64% 30.09 in - NNE 12.7 mph - N/A   Clear
9:00 PM 68 °F 54 °F 52% 30.10 in 19 mi NE 11.5 mph - -   Partly Cloudy
9:00 PM 68.0 °F 53.6 °F 60% 30.09 in 6.2 mi NNE 11.5 mph - N/A   Partly Cloudy
9:30 PM 68.0 °F 55.4 °F 64% 30.09 in - NNE 12.7 mph - N/A   Clear
10:00 PM 67 °F 55 °F 55% 30.10 in - NNE 10.4 mph - -  
10:00 PM 68.0 °F 55.4 °F 64% 30.09 in - NNE 10.4 mph - N/A   Clear
10:30 PM 68.0 °F 55.4 °F 64% 30.09 in - North 10.4 mph - N/A   Clear
11:00 PM 67 °F 55 °F 55% 30.10 in - North 10.4 mph - -  
11:00 PM 66.2 °F 55.4 °F 68% 30.09 in - North 10.4 mph - N/A   Clear
11:30 PM 66.2 °F 55.4 °F 68% 30.09 in - NNW 8.1 mph - N/A   Clear